闪电 1-32星 (MOLNIYA 1-32)

导读 | 星芒AI

MOLNIYA 1-32 是一颗俄罗斯军用通信卫星,于1998年12月23日由质子-K火箭从拜科努尔航天发射场发射升空。该卫星运行在高度椭圆轨道(Molniya轨道),周期约12小时,主要用于军事通信和战略指挥系统。MOLNIYA 系列卫星在俄罗斯航天和国防体系中发挥重要作用,尤其在高纬度地区提供稳定的通信覆盖。MOLNIYA 1-32 由俄罗斯信息连通部管理,是苏联/俄罗斯长期部署的Molniya卫星系列的一部分。

基本信息
目录编号:
8601
目录名称:
MOLNIYA 1-32
国际标识:
1976-006A
轨道中心:
EARTH
卫星名称:
闪电 1-32星
卫星全名:
闪电 1-32星 (MOLNIYA 1-32)
卫星状态:
在轨 (已飞行18225 天)
发射日期:
1976-01-22 UTC
国别 :
俄罗斯(独联体) (CIS)
星等 :
--
轨道信息
数据来源 国际轨道数据 AOE轨道数据
星历时间 2025-12-08T16:27:01+0800
轨道信息已过期7天
2025-12-09T16:00:00+0800
6天前
查看轨道信息
半长轴 26604.681km 26604.61km
偏心率 0.6707271 0.670735
轨道倾角 63.654° 63.657°
近地点辐角 277.841° 277.833°
升交点赤经 154.298° 154.199°
平近点角 16.459° 3.187°
近地点 2382.065km 2381.831km
远地点 38071.027km 38071.119km
周期 719.775分钟 719.772分钟
每日圈数 2.000625 2.000633
详细信息
平衡模式:
三轴稳定
覆盖范围:
全球
运营商:
俄罗斯国家航天集团
运营商所在国:
俄罗斯
制造商(研发单位):
普里克拉德诺伊·梅哈尼基设计局
制造商所在国:
俄罗斯联邦
使用方式:
暂无
卫星简介
闪电(Molniya (Satellite))系列卫星是苏联/俄罗斯于1965年至2004年间发射的军事和通信卫星。这些卫星使用高度偏心的椭圆轨道,称为Molniya轨道(即闪电轨道),在高纬度地区具有较长的停留时间。该卫星状态未知。
2D轨道图
3D轨道图
轨道高度分析图
轨道倾角分析图
轨道综合分析图
查看轨道综合分析图